Wind_Speed
98 96 92 89 83 82 80 80 78 74 73 76 72 69 68 66 63 60 60 60 57 57 58 58 59 60 61 61 62 62 64 65 66 66 66 66 67 69 72 71 71 72 72
99 101 98 95 89 87 82 80 81 79 74 72 75 76 72 69 66 64 63 63 63 62 62 63 65 66 67 68 67 68 68 70 71 72 72 72 72 72 73 74 75 75 76
110 105 105 100 95 91 87 82 80 80 80 79 77 75 75 74 72 70 68 67 67 67 67 68 69 69 70 70 71 71 71 72 73 73 73 73 75 75 76 78 78 80 81
109 109 110 108 102 98 95 90 84 82 78 79 79 75 77 75 74 74 74 72 71 70 71 71 71 72 72 72 72 72 73 73 73 73 74 75 76 76 78 79 82 84 84
98 104 109 112 108 107 103 97 92 87 84 81 76 77 77 77 78 78 76 74 72 72 72 73 72 72 72 73 74 73 73 73 74 76 77 77 77 79 80 83 85 87 87
84 93 101 110 111 112 107 102 96 90 86 84 81 79 76 74 77 75 73 72 72 72 72 71 72 73 74 75 74 74 73 73 75 76 75 77 79 82 83 86 87 89 95
75 78 89 102 109 112 111 107 101 94 88 86 85 82 82 78 75 74 73 73 74 71 72 74 77 78 76 76 75 75 73 75 75 76 77 79 83 85 89 91 92 96 98
67 71 77 91 105 113 116 112 107 101 93 93 89 85 81 80 78 77 76 76 79 75 76 78 80 81 78 76 76 75 73 74 77 80 83 85 88 92 95 98 100 101 106
56 64 71 78 93 105 112 113 111 105 98 95 92 87 81 77 81 79 66 76 73 70 78 81 82 82 78 77 73 74 76 77 80 84 89 91 94 98 101 105 108 110 111
46 53 60 68 78 91 106 114 114 107 99 97 95 90 87 87 83 81 79 77 67 74 80 81 83 81 78 80 78 78 80 82 87 91 94 97 101 104 108 111 115 119 121
38 45 54 60 65 77 94 110 112 107 99 95 95 93 91 89 90 86 83 84 84 83 83 81 76 80 81 82 83 85 85 90 93 96 100 103 106 111 114 117 122 125 130
33 42 49 52 58 69 83 97 108 106 101 97 95 93 92 89 88 87 86 85 86 85 88 86 85 86 85 86 87 89 91 95 99 102 105 108 111 115 119 122 126 131 134
30 40 49 56 62 67 75 85 96 103 100 95 94 94 90 88 89 89 91 89 90 90 88 87 86 87 88 90 91 93 95 100 103 107 109 111 115 119 123 127 132 134 138
29 35 44 52 60 64 69 75 86 94 95 94 90 96 92 91 91 94 93 94 92 91 90 88 88 90 92 92 94 97 100 104 107 109 112 116 119 122 127 131 134 136 137
26 29 33 41 45 49 54 57 67 81 91 95 101 98 94 95 95 97 98 95 94 91 89 90 90 92 93 94 97 101 104 107 110 113 116 119 123 127 129 133 133 135 138
24 29 30 34 38 39 42 44 51 59 67 92 98 99 100 97 101 99 96 93 91 89 91 91 93 93 95 97 101 104 106 110 113 116 120 123 126 127 130 129 134 139 145
24 26 32 37 40 45 43 44 51 55 67 78 90 97 99 100 97 98 96 93 92 90 93 94 95 96 99 102 104 107 110 112 115 118 120 122 124 123 126 132 138 145 148
23 24 26 34 40 50 51 57 60 64 69 73 80 87 93 97 99 100 96 95 95 95 95 94 96 98 100 101 104 107 109 112 113 114 116 115 119 124 130 135 140 142 146
20 22 19 17 22 28 37 47 57 60 60 60 64 67 71 77 78 82 86 89 92 93 93 94 95 97 99 100 101 102 103 104 107 107 112 117 124 131 133 133 138 145 150
34 31 24 21 17 14 15 22 27 34 40 44 49 54 58 62 66 70 72 74 76 78 81 83 80 81 84 86 89 91 93 97 104 112 117 123 129 127 131 138 144 145 136
37 32 29 26 24 21 19 17 14 14 15 14 15 16 18 20 24 29 36 41 45 50 55 61 66 71 75 78 82 87 94 101 109 116 122 123 123 130 137 141 139 130 122
26 24 23 21 20 18 16 14 11 8 4 3 7 12 16 20 25 30 35 40 45 50 55 60 64 69 74 81 87 94 100 107 114 116 116 121 128 135 137 130 125 117 108
14 13 11 10 9 8 7 5 3 4 8 11 15 19 23 27 31 35 40 44 48 53 57 63 69 75 80 87 93 100 107 112 111 114 120 127 133 132 125 120 113 104 95
6 6 5 3 3 3 4 6 8 11 14 17 21 25 28 32 36 40 45 50 55 59 64 70 75 81 87 92 99 107 109 108 113 120 128 131 129 123 118 110 101 92 84
6 5 5 5 6 8 10 12 14 17 21 24 28 32 37 41 44 48 52 56 61 65 70 76 81 87 93 99 106 105 107 112 119 125 127 126 121 116 108 98 90 81 73
13 15 16 17 19 20 22 24 27 29 33 36 39 42 45 48 52 55 59 63 67 72 78 83 88 94 99 105 104 108 112 118 122 124 123 118 113 107 97 88 80 72 66
Wind_Direction
231 234 233 235 236 236 234 236 233 235 235 235 236 240 242 245 247 250 256 258 258 262 265 268 271 273 274 276 276 278 281 282 283 285 287 289 292 294 296 297 298 299 300
233 228 232 232 233 235 235 233 235 235 234 236 236 238 241 244 246 248 252 257 259 262 265 267 270 271 275 277 280 281 283 285 287 288 290 292 294 295 295 295 296 297 299
237 232 230 232 232 233 235 235 234 236 236 236 237 239 241 242 244 247 251 256 259 262 265 267 269 272 275 277 279 281 282 284 286 288 291 292 292 294 294 295 296 297 300
233 232 231 231 231 232 232 233 232 233 235 237 237 238 240 243 246 247 250 254 258 262 265 268 271 274 275 275 276 278 280 282 285 288 289 290 292 293 293 294 296 298 300
232 230 230 230 231 232 232 230 230 230 232 236 239 240 243 244 245 247 250 253 258 261 264 267 270 271 273 274 276 279 281 284 285 286 288 290 292 292 293 294 296 299 300
229 228 226 228 228 230 231 232 232 231 232 235 237 239 242 244 246 248 251 255 259 262 265 268 269 270 271 274 277 281 284 285 286 288 290 291 292 293 296 297 300 301 300
231 226 224 224 226 227 229 230 230 231 232 235 238 239 241 244 247 250 255 260 262 263 264 266 267 269 271 275 278 280 282 285 288 290 290 291 292 295 296 298 300 301 300
232 228 223 222 221 223 224 227 229 228 228 227 236 238 241 244 247 250 254 258 259 262 265 267 267 270 273 275 277 281 282 286 289 291 292 293 294 296 298 299 300 301 300
228 227 223 220 218 220 222 224 227 227 227 230 234 236 239 250 245 247 246 252 260 263 263 265 269 271 274 276 277 281 284 287 291 292 294 295 296 298 298 299 299 301 301
223 223 220 220 217 217 219 223 225 226 226 228 233 235 236 240 244 246 248 250 255 257 261 265 267 271 275 277 280 285 288 291 292 292 294 296 297 298 299 300 300 301 301
213 215 215 215 215 216 218 221 225 226 226 228 233 235 237 240 243 245 248 249 251 254 261 264 271 274 276 279 284 287 289 291 292 293 295 296 297 298 299 300 300 301 301
202 206 209 207 209 213 217 220 223 225 225 227 231 234 237 240 243 246 248 252 254 256 259 263 269 273 277 280 282 286 288 291 292 293 294 295 297 298 298 300 301 301 303
199 202 203 205 208 208 214 216 220 224 225 227 231 234 238 240 243 246 249 250 254 256 258 263 267 272 275 279 283 286 289 290 291 292 294 295 297 298 300 301 301 303 304
195 199 205 207 208 211 213 214 217 221 224 225 232 235 237 239 243 246 248 251 254 257 261 265 269 273 276 280 283 286 287 288 290 292 294 295 297 299 299 301 303 303 302
188 191 202 208 210 214 215 215 217 219 223 225 228 233 236 239 242 244 247 250 255 260 264 268 271 274 277 281 283 285 287 288 291 293 294 296 297 298 300 301 301 301 303
178 183 192 197 200 201 209 211 208 201 219 224 228 232 236 239 242 246 251 255 258 262 265 269 272 276 279 281 282 285 287 289 291 293 295 296 298 299 301 301 302 302 302
170 174 181 188 194 188 183 195 196 208 223 227 228 231 235 241 244 247 251 255 259 263 265 269 272 275 278 280 284 286 288 290 292 293 295 297 298 299 301 302 302 302 302
146 158 175 187 189 193 191 196 206 211 221 226 228 232 236 240 244 248 252 256 260 263 266 269 273 276 279 282 285 287 289 291 293 294 296 297 299 301 301 302 302 303 305
121 142 160 186 201 209 215 213 214 224 227 231 235 240 244 247 251 253 255 258 261 265 268 271 275 278 281 283 286 289 290 292 295 295 298 300 302 302 303 302 302 306 307
99 104 109 117 129 155 181 208 221 228 234 240 242 245 249 252 255 257 260 264 267 269 272 276 280 282 284 286 288 291 294 295 298 300 301 303 302 303 302 304 306 308 309
85 93 99 103 112 118 123 135 150 165 181 200 219 235 247 256 261 262 266 270 273 276 278 279 282 284 286 290 292 294 297 298 300 302 303 303 304 304 304 307 309 310 310
70 75 78 80 81 82 85 88 90 93 114 201 243 250 254 262 267 271 275 277 278 279 281 283 286 288 291 294 297 298 299 301 303 302 303 304 304 306 308 310 311 311 312
69 69 68 67 67 62 53 36 353 298 283 279 277 276 275 275 276 276 277 279 281 283 286 290 292 294 296 298 299 300 302 302 303 304 305 305 307 310 312 313 313 313 313
124 127 132 143 165 201 232 248 256 260 265 266 267 269 271 274 277 280 284 286 289 290 291 293 295 297 297 299 301 303 303 305 306 307 308 310 312 314 315 314 314 314 313
192 200 208 227 238 244 249 256 264 271 276 279 280 280 281 282 283 285 287 288 290 292 294 295 296 299 301 302 304 304 306 308 310 310 311 312 314 315 315 315 314 313 313
300 304 302 297 292 288 285 281 279 278 279 280 281 281 282 283 284 286 288 290 292 294 296 298 301 302 303 305 306 307 309 310 311 311 313 315 315 316 315 315 314 314 314
Height
10585 10590 10604 10614 10630 10636 10649 10662 10670 10677 10686 10693 10699 10702 10704 10710 10715 10718 10719 10721 10723 10723 10724 10724 10722 10722 10720 10719 10717 10716 10714 10711 10707 10704 10702 10699 10695 10691 10685 10680 10675 10669 10662
10560 10573 10582 10594 10613 10621 10632 10645 10655 10665 10672 10678 10682 10687 10694 10699 10703 10707 10708 10710 10711 10712 10713 10712 10711 10709 10708 10706 10705 10703 10701 10697 10694 10691 10689 10686 10681 10676 10670 10664 10659 10653 10646
10530 10552 10561 10579 10594 10607 10618 10630 10641 10648 10656 10661 10668 10677 10681 10684 10688 10693 10697 10698 10700 10701 10700 10699 10698 10699 10696 10694 10692 10689 10686 10684 10680 10677 10675 10671 10666 10662 10655 10648 10642 10635 10628
10497 10522 10539 10554 10577 10590 10597 10610 10623 10633 10640 10646 10657 10662 10666 10672 10676 10680 10682 10685 10688 10687 10687 10686 10687 10685 10682 10681 10678 10676 10673 10671 10668 10664 10660 10655 10651 10646 10640 10632 10626 10617 10610
10472 10493 10515 10535 10557 10564 10576 10590 10603 10616 10626 10633 10643 10648 10654 10658 10663 10666 10670 10672 10675 10674 10674 10674 10674 10671 10668 10666 10664 10662 10660 10658 10653 10648 10645 10640 10634 10629 10623 10615 10608 10600 10591
10448 10467 10490 10508 10532 10544 10557 10573 10589 10603 10613 10620 10628 10634 10639 10644 10649 10655 10658 10660 10662 10663 10662 10662 10658 10655 10653 10652 10652 10650 10647 10643 10638 10634 10629 10624 10618 10611 10605 10598 10590 10581 10565
10430 10448 10467 10485 10508 10527 10539 10552 10570 10589 10602 10610 10614 10620 10627 10633 10638 10644 10647 10648 10648 10649 10649 10646 10642 10640 10641 10640 10638 10636 10632 10628 10624 10619 10614 10608 10601 10594 10587 10580 10574 10568 10556
10417 10431 10446 10460 10478 10497 10514 10530 10548 10569 10586 10593 10598 10607 10614 10621 10627 10630 10632 10632 10630 10634 10632 10628 10628 10627 10628 10626 10623 10621 10618 10614 10609 10603 10597 10590 10583 10575 10567 10560 10554 10548 10538
10402 10413 10427 10442 10458 10476 10500 10515 10527 10550 10568 10579 10587 10595 10607 10608 10612 10615 10619 10613 10619 10617 10613 10613 10613 10614 10614 10612 10609 10606 10603 10598 10593 10586 10578 10571 10564 10554 10546 10538 10529 10522 10520
10391 10402 10415 10429 10447 10465 10480 10493 10509 10531 10553 10565 10572 10580 10589 10589 10596 10600 10603 10603 10605 10599 10599 10601 10600 10602 10601 10597 10594 10591 10586 10581 10576 10568 10559 10552 10542 10532 10524 10514 10502 10493 10487
10381 10390 10404 10417 10436 10452 10464 10479 10496 10520 10541 10555 10559 10565 10572 10576 10578 10584 10588 10588 10589 10587 10586 10588 10588 10587 10585 10582 10580 10575 10570 10565 10557 10549 10540 10531 10522 10511 10500 10489 10478 10464 10451
10376 10383 10395 10411 10424 10437 10451 10467 10483 10505 10526 10538 10545 10549 10556 10563 10570 10572 10574 10575 10574 10575 10575 10577 10577 10574 10572 10569 10565 10561 10555 10547 10538 10530 10521 10512 10502 10490 10479 10467 10452 10436 10419
10372 10379 10387 10397 10410 10423 10437 10454 10474 10491 10511 10528 10533 10537 10546 10553 10556 10558 10557 10561 10560 10562 10564 10566 10566 10563 10559 10555 10551 10545 10538 10530 10521 10511 10502 10493 10481 10469 10455 10440 10423 10409 10391
10368 10376 10384 10394 10404 10416 10428 10446 10463 10482 10502 10516 10524 10521 10532 10539 10541 10539 10543 10544 10548 10550 10552 10554 10552 10548 10545 10541 10535 10529 10522 10512 10503 10494 10484 10473 10461 10448 10433 10416 10400 10383 10362
10370 10377 10386 10395 10409 10422 10433 10445 10460 10476 10487 10499 10500 10509 10516 10522 10525 10525 10527 10533 10537 10540 10542 10540 10538 10535 10531 10526 10520 10512 10504 10495 10485 10475 10464 10452 10439 10424 10409 10394 10375 10354 10337
10371 10379 10387 10398 10410 10423 10433 10442 10454 10464 10468 10477 10490 10497 10501 10509 10509 10514 10519 10523 10526 10528 10528 10527 10524 10521 10516 10510 10502 10495 10488 10479 10467 10455 10442 10429 10415 10399 10384 10364 10343 10324 10302
10373 10381 10389 10398 10406 10418 10428 10437 10446 10455 10460 10469 10478 10485 10492 10495 10503 10506 10509 10512 10515 10517 10514 10513 10511 10507 10501 10493 10486 10478 10469 10460 10449 10436 10423 10407 10392 10377 10360 10339 10317 10293 10271
10378 10385 10393 10399 10406 10412 10422 10432 10438 10446 10451 10459 10466 10473 10481 10486 10491 10495 10502 10505 10504 10502 10501 10499 10497 10491 10485 10480 10471 10462 10452 10441 10428 10414 10401 10386 10371 10354 10334 10316 10290 10266 10244
10387 10392 10398 10404 10410 10416 10423 10430 10436 10440 10448 10455 10463 10470 10476 10479 10487 10490 10492 10492 10492 10492 10491 10485 10481 10477 10471 10463 10456 10444 10432 10420 10407 10392 10378 10363 10345 10322 10306 10286 10262 10241 10218
10397 10402 10406 10410 10415 10420 10425 10432 10437 10443 10449 10456 10462 10467 10470 10473 10476 10479 10480 10481 10481 10479 10476 10473 10467 10461 10455 10446 10437 10427 10415 10402 10386 10369 10352 10336 10316 10296 10274 10254 10234 10214 10189
10410 10414 10418 10419 10421 10424 10428 10433 10437 10441 10446 10451 10455 10458 10461 10464 10466 10468 10468 10468 10467 10465 10463 10458 10452 10446 10438 10429 10419 10409 10396 10382 10364 10347 10329 10307 10289 10267 10247 10226 10203 10180 10160
10421 10423 10426 10427 10428 10430 10432 10435 10438 10440 10444 10448 10451 10453 10455 10457 10458 10459 10459 10458 10456 10453 10448 10443 10438 10430 10422 10412 10400 10388 10374 10359 10344 10323 10305 10285 10263 10241 10219 10197 10174 10152 10131
10429 10429 10430 10431 10432 10433 10435 10437 10439 10441 10444 10446 10447 10449 10450 10451 10452 10451 10450 10447 10444 10440 10434 10428 10420 10413 10403 10392 10379 10366 10351 10335 10316 10297 10278 10257 10235 10212 10189 10168 10146 10127 10108
10432 10432 10433 10434 10434 10435 10437 10438 10439 10441 10442 10443 10444 10444 10444 10444 10442 10440 10438 10434 10430 10425 10419 10411 10402 10393 10384 10372 10357 10342 10325 10309 10290 10268 10246 10224 10202 10182 10162 10140 10123 10106 10091
10431 10432 10432 10433 10434 10434 10435 10436 10436 10437 10437 10437 10437 10436 10434 10432 10430 10427 10423 10419 10414 10408 10401 10393 10385 10374 10361 10348 10333 10316 10300 10282 10263 10242 10218 10196 10175 10155 10136 10120 10103 10089 10076
10425 10425 10426 10427 10428 10429 10429 10430 10430 10429 10429 10428 10426 10424 10421 10419 10415 10412 10408 10403 10397 10390 10382 10373 10363 10351 10337 10322 10306 10290 10274 10258 10236 10214 10192 10172 10152 10132 10112 10098 10085 10072 10061